轨道通信卫星FM29星 (ORBCOMM FM29)

导读

ORBCOMM FM 29是ORBCOMM低轨窄带通信卫星星座的一员,由轨道通信公司运营,于2008年6月19日发射入轨,运行于约780公里高度的近地轨道。它主要服务于全球机器对机器(M2M)和物联网场景,提供双向窄带数据传输、远程监测服务,工作于VHF/UHF频段,在交通运输、油气田、环保监测、渔业等领域,为偏远和海洋区域提供低成本连接支持。

Basic Information
目录编号:
33062
目录名称:
ORBCOMM FM 29
国际标识:
2008-031C
轨道中心:
EARTH
卫星名称:
轨道通信卫星FM29星
卫星全名:
轨道通信卫星FM29星 (ORBCOMM FM29)
卫星状态:
在轨 (已飞行6612 天)
发射日期:
2008-06-19 UTC
国别 :
(ORB)
星等 :
--
Orbit Information
数据来源 国际轨道数据 AOE轨道数据
星历时间 2026-07-27T18:19:08+0800
13小时前
查看轨道信息
2026-07-26T02:00:00+0800
2天前
查看轨道信息
半长轴 6998.32km 6998.348km
偏心率 0.0006046 0.0006205
轨道倾角 48.437° 48.435°
近地点辐角 326.858° 318.759°
升交点赤经 197.411° 205.440°
平近点角 193.168° 225.709°
近地点 615.951km 615.868km
远地点 624.415km 624.554km
周期 97.107分钟 97.108分钟
每日圈数 14.829007 14.828918
Detailed Information
固有亮度:
8
最大亮度:
6.7
平衡模式:
三轴稳定
覆盖范围:
全球
运营商:
轨道通信公司
运营商所在国:
美国
使用方式:
暂无
Satellite Introduction
轨道通信FM(Orbcomm FM)是一系列低地球轨道通信卫星,由美国卫星通信公司 Orbcomm运营。 截至2015年12月,已有63颗此类卫星绕地球运行。该卫星已退役。
2D Orbit Map
3D Orbit Map
Orbit Altitude Analysis Chart
Orbit Inclination Analysis Chart
Orbit Comprehensive Analysis Chart
View Comprehensive Chart